TimePDT,TemperatureF,Dew PointF,Humidity,Sea Level PressureIn,VisibilityMPH,Wind Direction,Wind SpeedMPH,Gust SpeedMPH,PrecipitationIn,Events,Conditions,WindDirDegrees,DateUTC
12:15 AM,64.4,51.8,64,30.00,10.0,West,3.5,-,N/A,,Clear,270,2013-08-17 07:15:00
12:35 AM,64.4,53.6,68,30.00,10.0,SSW,3.5,-,N/A,,Clear,210,2013-08-17 07:35:00
12:55 AM,64.4,53.6,68,30.00,10.0,SSW,4.6,-,N/A,,Clear,210,2013-08-17 07:55:00
1:15 AM,62.6,53.6,72,29.99,10.0,NW,3.5,-,N/A,,Clear,320,2013-08-17 08:15:00
1:35 AM,62.6,53.6,72,29.99,10.0,WSW,3.5,-,N/A,,Clear,240,2013-08-17 08:35:00
1:55 AM,62.6,53.6,72,29.99,10.0,Calm,Calm,-,N/A,,Clear,0,2013-08-17 08:55:00
2:15 AM,62.6,55.4,77,29.98,10.0,Calm,Calm,-,N/A,,Clear,0,2013-08-17 09:15:00
2:35 AM,62.6,55.4,77,29.98,10.0,Calm,Calm,-,N/A,,Clear,0,2013-08-17 09:35:00
2:55 AM,62.6,55.4,77,29.98,10.0,Calm,Calm,-,N/A,,Clear,0,2013-08-17 09:55:00
3:15 AM,62.6,53.6,72,29.97,10.0,Calm,Calm,-,N/A,,Clear,0,2013-08-17 10:15:00
3:35 AM,62.6,53.6,72,29.97,10.0,NW,3.5,-,N/A,,Clear,310,2013-08-17 10:35:00
3:55 AM,62.6,53.6,72,29.97,10.0,NW,4.6,-,N/A,,Clear,310,2013-08-17 10:55:00
4:15 AM,60.8,53.6,77,29.97,10.0,WNW,5.8,-,N/A,,Clear,300,2013-08-17 11:15:00
4:35 AM,62.6,53.6,72,29.97,10.0,Calm,Calm,-,N/A,,Clear,0,2013-08-17 11:35:00
4:55 AM,62.6,53.6,72,29.98,10.0,Calm,Calm,-,N/A,,Clear,0,2013-08-17 11:55:00
5:15 AM,60.8,53.6,77,29.98,10.0,Calm,Calm,-,N/A,,Clear,0,2013-08-17 12:15:00
5:35 AM,62.6,53.6,72,29.98,10.0,Calm,Calm,-,N/A,,Clear,0,2013-08-17 12:35:00
5:55 AM,62.6,53.6,72,29.98,10.0,Calm,Calm,-,N/A,,Clear,0,2013-08-17 12:55:00
6:15 AM,60.8,53.6,77,29.99,10.0,Calm,Calm,-,N/A,,Clear,0,2013-08-17 13:15:00
6:35 AM,62.6,53.6,72,29.99,10.0,Calm,Calm,-,N/A,,Clear,0,2013-08-17 13:35:00
6:47 AM,62.6,53.6,72,29.99,10.0,Calm,Calm,-,N/A,,Mostly Cloudy,0,2013-08-17 13:47:00
6:55 AM,62.6,53.6,72,29.99,10.0,Calm,Calm,-,N/A,,Clear,0,2013-08-17 13:55:00
7:47 AM,62.6,55.4,77,30.00,10.0,Calm,Calm,-,N/A,,Mostly Cloudy,0,2013-08-17 14:47:00
9:50 AM,69.8,55.4,60,29.99,10.0,WNW,9.2,-,N/A,,Mostly Cloudy,300,2013-08-17 16:50:00
10:51 AM,66.2,59.0,78,30.00,10.0,NE,8.1,-,N/A,,Mostly Cloudy,40,2013-08-17 17:51:00
11:47 AM,66.2,59.0,78,30.01,10.0,North,4.6,-,N/A,,Mostly Cloudy,10,2013-08-17 18:47:00
12:47 PM,69.8,57.2,64,29.98,10.0,WNW,3.5,-,N/A,,Mostly Cloudy,290,2013-08-17 19:47:00
1:47 PM,73.4,57.2,57,29.96,10.0,North,5.8,-,N/A,,Mostly Cloudy,360,2013-08-17 20:47:00
2:55 PM,75.2,55.4,50,29.94,10.0,WNW,10.4,16.1,N/A,,Mostly Cloudy,290,2013-08-17 21:55:00
3:47 PM,77.0,57.2,50,29.94,10.0,WNW,9.2,-,N/A,,Mostly Cloudy,290,2013-08-17 22:47:00
4:47 PM,75.2,57.2,53,29.92,10.0,West,12.7,17.3,N/A,,Scattered Clouds,260,2013-08-17 23:47:00
5:47 PM,71.6,57.2,60,29.92,10.0,WSW,12.7,-,N/A,,Scattered Clouds,250,2013-08-18 00:47:00
6:47 PM,68.0,57.2,68,29.91,10.0,WSW,6.9,-,N/A,,Scattered Clouds,250,2013-08-18 01:47:00
7:50 PM,64.4,57.2,77,29.91,10.0,WSW,10.4,16.1,N/A,,Scattered Clouds,240,2013-08-18 02:50:00
8:47 PM,64.4,57.2,77,29.92,10.0,West,4.6,-,N/A,,Scattered Clouds,280,2013-08-18 03:47:00
9:15 PM,64.4,57.2,77,29.92,10.0,West,6.9,-,N/A,,Clear,280,2013-08-18 04:15:00
9:35 PM,64.4,57.2,77,29.92,10.0,WNW,5.8,-,N/A,,Clear,300,2013-08-18 04:35:00
9:55 PM,62.6,57.2,82,29.93,10.0,NW,8.1,-,N/A,,Clear,320,2013-08-18 04:55:00
10:15 PM,62.6,57.2,82,29.92,10.0,WNW,9.2,-,N/A,,Clear,300,2013-08-18 05:15:00
10:35 PM,64.4,57.2,77,29.92,10.0,NW,3.5,-,N/A,,Clear,320,2013-08-18 05:35:00
10:55 PM,64.4,57.2,77,29.91,10.0,WNW,4.6,-,N/A,,Clear,290,2013-08-18 05:55:00
11:15 PM,64.4,57.2,77,29.91,10.0,West,4.6,-,N/A,,Clear,260,2013-08-18 06:15:00
11:35 PM,64.4,55.4,73,29.90,10.0,WNW,3.5,-,N/A,,Clear,290,2013-08-18 06:35:00
11:55 PM,62.6,55.4,77,29.90,10.0,Calm,Calm,-,N/A,,Clear,0,2013-08-18 06:55:00